DC1NF-7 Weather Reports


time (UTC)temp
C
wind
direction
speed
KPH
gust
KPH
rain 1hr
cm
rain 24hr
cm
rain mn
cm
humidity
%
barometer
mb
20260507094607 10 200 6.4 12.9 0.00 0.51 0.33 92 1013.4
20260507093607 11 234 6.4 12.9 0.03 0.51 0.33 91 1013.4
20260507092601 11 208 4.8 9.7 0.03 0.51 0.33 90 1013.2
20260507091558 10 235 4.8 9.7 0.03 0.51 0.33 90 1013.3
20260507090553 10 232 6.4 12.9 0.03 0.51 0.33 92 1013.1
20260507085549 10 243 3.2 6.4 0.03 0.51 0.33 94 1013.0
20260507084545 10 249 3.2 6.4 0.03 0.51 0.33 94 1012.9
20260507083545 10 251 6.4 9.7 0.00 0.48 0.30 93 1012.7
20260507082541 10 225 6.4 11.3 0.00 0.48 0.30 90 1012.6
20260507081538 10 243 3.2 9.7 0.00 0.48 0.30 89 1012.4
20260507080532 10 250 4.8 6.4 0.00 0.48 0.30 91 1012.3
20260507075529 10 249 6.4 11.3 0.00 0.48 0.30 90 1012.3
20260507074529 10 273 4.8 12.9 0.00 0.48 0.30 90 1012.2
20260507073525 10 230 4.8 11.3 0.00 0.48 0.30 89 1012.0
20260507072520 10 265 4.8 11.3 0.00 0.48 0.30 90 1011.9
20260507071613 10 223 6.4 9.7 0.03 0.48 0.30 90 1011.9
20260507070618 10 234 6.4 12.9 0.03 0.48 0.30 91 1011.8
20260507065607 10 236 6.4 11.3 0.03 0.48 0.30 91 1011.6
20260507064607 10 237 4.8 9.7 0.03 0.48 0.30 92 1011.5
20260507063603 10 240 6.4 12.9 0.03 0.48 0.30 93 1011.3
20260507062556 10 248 6.4 11.3 0.03 0.48 0.30 92 1011.3
20260507061551 10 241 6.4 12.9 0.00 0.46 0.28 94 1011.3
20260507060547 10 227 6.4 11.3 0.00 0.46 0.28 94 1011.1
20260507055546 10 242 4.8 11.3 0.03 0.46 0.28 94 1011.0
20260507054539 10 243 4.8 6.4 0.03 0.46 0.28 94 1010.8
20260507053538 10 254 6.4 11.3 0.03 0.46 0.28 94 1010.7
20260507052535 10 259 3.2 6.4 0.03 0.46 0.28 94 1010.8
20260507051532 10 242 4.8 11.3 0.03 0.46 0.28 95 1010.5
20260507050524 10 249 3.2 6.4 0.03 0.46 0.28 95 1010.4
20260507045520 10 224 4.8 9.7 0.00 0.43 0.23 95 1010.3
20260507044519 10 234 3.2 6.4 0.00 0.43 0.23 94 1010.3
20260507043616 10 241 3.2 9.7 0.00 0.43 0.23 94 1010.2
20260507042610 10 222 6.4 11.3 0.00 0.43 0.23 94 1010.1
20260507041609 10 231 4.8 12.9 0.00 0.43 0.23 94 1010.0
20260507040603 10 205 4.8 11.3 0.00 0.43 0.23 93 1009.9
20260507035603 10 206 3.2 11.3 0.00 0.43 0.23 93 1009.8
20260507034600 10 225 4.8 9.7 0.00 0.43 0.23 93 1009.7
20260507033557 10 253 4.8 9.7 0.00 0.43 0.23 93 1009.7
20260507032548 10 256 4.8 9.7 0.00 0.43 0.23 93 1009.6
20260507031544 10 214 3.2 6.4 0.00 0.43 0.23 94 1009.5
20260507030541 10 193 1.6 6.4 0.00 0.43 0.23 94 1009.5
20260507025538 10 231 3.2 6.4 0.00 0.43 0.23 93 1009.5
20260507024538 10 256 4.8 9.7 0.00 0.43 0.23 92 1009.4
20260507023534 10 243 4.8 9.7 0.00 0.43 0.23 91 1009.5
20260507022526 10 234 6.4 12.9 0.00 0.43 0.23 91 1009.5
20260507021522 10 260 8.0 17.7 0.00 0.43 0.23 91 1009.5
20260507020517 10 246 6.4 11.3 0.00 0.43 0.23 92 1009.3
20260507015617 10 221 3.2 6.4 0.00 0.43 0.23 93 1009.2
20260507014609 10 244 6.4 9.7 0.00 0.43 0.23 92 1009.2
20260507013606 10 237 6.4 11.3 0.00 0.43 0.23 92 1009.0
20260507012606 10 254 9.7 17.7 0.00 0.43 0.23 92 1009.0
20260507011600 10 236 8.0 17.7 0.03 0.43 0.23 94 1009.0
20260507010556 10 251 4.8 12.9 0.05 0.43 0.23 94 1009.0
20260507005552 10 236 6.4 11.3 0.05 0.43 0.23 94 1009.1
20260507004547 11 230 6.4 12.9 0.10 0.43 0.23 94 1009.0
20260507003544 11 240 6.4 17.7 0.15 0.43 0.23 95 1008.9
20260507002544 11 213 8.0 14.5 0.18 0.43 0.23 95 1008.9
20260507001538 11 222 4.8 11.3 0.18 0.38 0.20 97 1009.0
20260507000538 11 180 3.2 6.4 0.15 0.36 0.18 96 1008.9
20260506235539 11 199 4.8 11.3 0.15 0.36 0.18 96 1009.0
20260506234531 11 235 4.8 6.4 0.15 0.33 0.15 95 1009.0
20260506233527 11 212 4.8 12.9 0.10 0.28 0.10 95 1008.8
20260506232520 11 216 6.4 11.3 0.05 0.23 0.05 95 1009.0
20260506231516 11 223 3.2 9.7 0.03 0.20 0.03 94 1008.8
20260506230612 11 244 4.8 11.3 0.03 0.20 0.03 94 1008.9
20260506225613 11 244 3.2 9.7 0.03 0.20 0.03 93 1008.7
20260506224606 11 248 6.4 9.7 0.00 0.18 0.00 91 1008.7
20260506223602 11 248 6.4 9.7 0.00 0.18 0.00 91 1008.6
20260506222601 11 254 6.4 14.5 0.00 0.18 0.00 91 1008.4
20260506221557 11 264 3.2 9.7 0.00 0.18 0.00 91 1008.4
20260506220552 11 255 6.4 14.5 0.00 0.18 0.00 91 1008.4
20260506215550 12 210 6.4 12.9 0.00 0.18 0.18 90 1008.4
20260506214541 12 256 4.8 11.3 0.00 0.18 0.18 90 1008.4
20260506213538 12 196 4.8 12.9 0.00 0.18 0.18 89 1008.4
20260506212537 12 237 6.4 12.9 0.00 0.18 0.18 89 1008.3
20260506211534 12 203 6.4 9.7 0.00 0.18 0.18 90 1008.2
20260506210530 12 207 3.2 6.4 0.00 0.18 0.18 92 1008.2
20260506205523 12 223 3.2 6.4 0.00 0.18 0.18 91 1008.1
20260506204518 12 247 8.0 17.7 0.03 0.18 0.18 89 1007.9
20260506203515 12 225 4.8 9.7 0.05 0.18 0.18 94 1007.9
20260506202613 12 215 1.6 6.4 0.10 0.18 0.18 94 1007.9
20260506201609 12 206 3.2 6.4 0.13 0.18 0.18 94 1007.8
20260506200609 12 176 1.6 6.4 0.15 0.18 0.18 94 1007.7
20260506195606 12 188 1.6 3.2 0.18 0.18 0.18 94 1007.7
20260506194600 12 183 3.2 6.4 0.15 0.15 0.15 93 1007.6
20260506193559 12 241 3.2 6.4 0.13 0.13 0.13 93 1007.4
20260506192552 13 210 1.6 6.4 0.10 0.10 0.10 92 1007.3
20260506191550 13 248 3.2 6.4 0.05 0.05 0.05 91 1007.2
20260506190546 13 184 3.2 6.4 0.03 0.03 0.03 89 1007.1
20260506185541 13 258 3.2 6.4 0.00 0.00 0.00 87 1006.8
20260506184537 13 231 3.2 6.4 0.00 0.00 0.00 87 1006.8
20260506183534 13 184 6.4 11.3 0.00 0.00 0.00 85 1006.6
20260506182529 14 222 6.4 11.3 0.00 0.00 0.00 83 1006.6
20260506181529 15 198 6.4 14.5 0.00 0.00 0.00 83 1006.5
20260506180520 15 185 4.8 6.4 0.00 0.00 0.00 82 1006.3
20260506175521 15 228 1.6 6.4 0.00 0.00 0.00 81 1006.0
20260506174612 15 180 3.2 6.4 0.00 0.00 0.00 81 1006.0
20260506173609 15 180 3.2 3.2 0.00 0.00 0.00 83 1005.9
20260506172605 15 180 3.2 6.4 0.00 0.00 0.00 81 1005.9
20260506171606 15 0.0 0.0 0.00 0.00 0.00 80 1005.6
20260506170558 15 0.0 0.0 0.00 0.00 0.00 81 1005.7
20260506165554 15 218 1.6 3.2 0.00 0.00 0.00 77 1005.6
20260506164553 15 231 0.0 3.2 0.00 0.00 0.00 81 1005.5
20260506163549 15 104 3.2 6.4 0.00 0.00 0.00 79 1005.4
20260506162543 16 225 0.0 3.2 0.00 0.00 0.00 76 1005.3
20260506161543 15 259 3.2 6.4 0.00 0.05 0.00 74 1005.5
20260506160537 16 254 4.8 9.7 0.00 0.13 0.00 70 1005.5
20260506155539 16 252 4.8 9.7 0.00 0.36 0.00 66 1005.7
20260506154531 16 259 8.0 12.9 0.00 0.64 0.00 65 1005.8
20260506153529 17 225 8.0 17.7 0.00 0.69 0.00 66 1005.8
20260506152525 17 252 8.0 14.5 0.00 0.69 0.00 67 1005.7
20260506151521 18 243 4.8 12.9 0.00 0.69 0.00 62 1005.4
20260506150615 18 234 4.8 6.4 0.00 0.69 0.00 60 1005.4
20260506145612 18 227 1.6 6.4 0.00 0.69 0.00 58 1005.6
20260506144608 18 245 1.6 3.2 0.00 0.69 0.00 58 1005.4
20260506143608 18 239 1.6 6.4 0.00 0.69 0.00 57 1005.3
20260506142603 18 238 1.6 3.2 0.00 0.69 0.00 57 1005.5
20260506141559 19 218 1.6 6.4 0.00 0.69 0.00 56 1005.4
20260506140551 18 250 3.2 6.4 0.00 0.69 0.00 58 1005.6
20260506135550 18 211 1.6 3.2 0.00 0.69 0.00 58 1005.5
20260506134543 18 235 1.6 6.4 0.00 0.69 0.00 60 1005.5
20260506133539 18 218 4.8 6.4 0.00 0.69 0.00 58 1005.7
20260506132544 18 227 3.2 9.7 0.00 0.69 0.00 57 1005.8
20260506131537 18 205 4.8 9.7 0.00 0.69 0.00 58 1005.7
20260506130529 18 178 4.8 14.5 0.00 0.69 0.00 57 1005.7
20260506125525 18 183 4.8 9.7 0.00 0.69 0.00 56 1005.9
20260506124520 18 207 1.6 6.4 0.00 0.69 0.00 57 1005.9
20260506123517 19 191 3.2 9.7 0.00 0.69 0.00 56 1005.9
20260506122614 19 163 6.4 12.9 0.00 0.69 0.00 56 1006.0
20260506121614 20 241 3.2 12.9 0.00 0.69 0.00 56 1006.0
20260506120611 18 181 6.4 14.5 0.00 0.69 0.00 59 1006.1
20260506115605 18 176 1.6 9.7 0.00 0.69 0.00 60 1006.1
20260506114605 19 189 3.2 6.4 0.00 0.69 0.00 57 1006.2
20260506113601 18 193 3.2 9.7 0.00 0.69 0.00 60 1006.2
20260506112557 18 184 4.8 6.4 0.00 0.69 0.00 59 1006.2
20260506111549 18 188 3.2 14.5 0.00 0.69 0.00 58 1006.3
20260506110546 18 192 1.6 6.4 0.00 0.69 0.00 61 1006.5
20260506105546 18 83 1.6 6.4 0.00 0.69 0.00 60 1006.5
20260506104542 17 150 3.2 9.7 0.00 0.69 0.00 62 1006.4
20260506103535 18 200 3.2 3.2 0.00 0.69 0.00 61 1006.5
20260506102531 17 245 4.8 9.7 0.00 0.69 0.00 63 1006.7
20260506101530 17 199 3.2 11.3 0.00 0.69 0.00 63 1006.7
20260506100523 17 225 1.6 6.4 0.00 0.69 0.00 65 1006.8
20260506095518 17 179 3.2 9.7 0.00 0.69 0.00 68 1006.8
20260506094617 17 183 6.4 17.7 0.00 0.69 0.00 67 1006.7